Terminal Aerodrome Forecast
Issued by NWS

Home | Current Version | Previous Version | Text Only | Print | Product List | Glossary On
Versions: 1 2 3 4 5 6 7 8 9 10 11 12
000
FTUS42 TJSJ 292325
TAFKPK
TAF
TKPK 292325Z 3000/3024 06010KT P6SM FEW019
     FM301200 09013KT P6SM VCSH SCT022
     FM302300 10010KT P6SM VCSH SCT025 SCT050
      AMD NOT SKED 3002/3011=

USA.gov is the U.S. government's official web portal to all federal, state and local government web resources and services.